GUNLAK-WX Weather Reports


Display with metric or nautical units.
time (UTC)temp
F
wind
direction
speed
MPH
gust
MPH
rain 1hr
in
rain 24hr
in
rain mn
in
humidity
%
barometer
mb
20260503180155 60 232 19.0 0.0 0.00 0.00 0.00 45 985.8
20260503174613 59 238 20.0 0.0 0.00 0.00 0.00 42 986.3
20260503173134 59 237 20.0 0.0 0.00 0.00 0.00 40 985.6
20260503170144 59 236 20.0 0.0 0.00 0.00 0.00 40 985.6
20260503160154 57 233 17.0 0.0 0.00 0.00 0.00 49 985.2
20260503150150 53 240 12.0 0.0 0.00 0.00 0.00 57 986.1
20260503140200 51 227 14.0 0.0 0.00 0.00 0.00 59 986.1
20260503130148 44 222 8.0 0.0 0.00 0.00 0.00 69 986.4
20260503120200 41 209 8.0 0.0 0.00 0.00 0.00 71 986.7
20260503110148 36 197 6.0 0.0 0.00 0.00 0.00 77 985.8
20260503100150 35 191 5.0 0.0 0.00 0.00 0.00 79 985.7
20260503090145 35 193 5.0 0.0 0.00 0.00 0.00 74 985.9
20260503081614 35 190 6.0 0.0 0.00 0.00 0.00 71 986.4
20260503080141 35 187 5.0 0.0 0.00 0.00 0.00 71 985.9
20260503071614 35 174 6.0 0.0 0.00 0.00 0.00 70 986.6
20260503070144 35 182 5.0 0.0 0.00 0.00 0.00 70 986.6
20260503060203 36 180 4.0 0.0 0.00 0.00 0.00 70 987.5
20260503054614 37 177 4.0 0.0 0.00 0.00 0.00 72 988.0
20260503051614 35 171 4.0 0.0 0.00 0.00 0.00 74 988.3
20260503050144 35 174 4.0 0.0 0.00 0.00 0.00 74 988.3
20260503044613 36 177 4.0 0.0 0.00 0.00 0.00 73 988.5
20260503043133 36 174 4.0 0.0 0.00 0.00 0.00 73 988.0
20260503041614 36 167 3.0 0.0 0.00 0.00 0.00 73 988.0
20260503040147 37 177 4.0 0.0 0.00 0.00 0.00 73 988.0
20260503034614 37 180 4.0 0.0 0.00 0.00 0.00 69 989.2
20260503033135 37 183 4.0 0.0 0.00 0.00 0.00 71 989.3
20260503031614 38 180 4.0 0.0 0.00 0.00 0.00 71 989.3
20260503030146 38 183 4.0 0.0 0.00 0.00 0.00 71 989.3
20260503024614 38 171 4.0 0.0 0.00 0.00 0.00 67 990.0
20260503023133 39 177 4.0 0.0 0.00 0.00 0.00 72 989.8
20260503021614 39 202 4.0 0.0 0.00 0.00 0.00 72 989.7
20260503020143 39 209 4.0 0.0 0.00 0.00 0.00 72 989.7
20260503014614 40 223 4.0 0.0 0.00 0.00 0.00 62 989.2
20260503013132 40 234 4.0 0.0 0.00 0.00 0.00 62 989.2
20260503011614 41 234 4.0 0.0 0.00 0.00 0.00 62 989.2
20260503010144 41 242 4.0 0.0 0.00 0.00 0.00 62 989.2
20260503004613 42 246 4.0 0.0 0.00 0.00 0.00 47 990.0
20260503003127 43 241 4.0 0.0 0.00 0.00 0.00 48 990.1
20260503001614 44 250 3.0 0.0 0.00 0.00 0.00 48 990.1
20260503000149 45 266 3.0 0.0 0.00 0.00 0.00 48 990.1
20260502234616 46 283 4.0 0.0 0.00 0.00 0.00 38 990.1
20260502233127 46 285 6.0 0.0 0.00 0.00 0.00 39 990.1
20260502231615 46 287 6.0 0.0 0.00 0.00 0.00 39 990.1
20260502230142 47 285 7.0 0.0 0.00 0.00 0.00 39 990.1
20260502224615 47 285 8.0 0.0 0.00 0.00 0.00 39 990.4
20260502223133 47 285 9.0 0.0 0.00 0.00 0.00 38 991.2
20260502221615 47 284 9.0 0.0 0.00 0.00 0.00 38 991.2
20260502220142 47 284 10.0 0.0 0.00 0.00 0.00 38 991.2
20260502214615 47 285 10.0 0.0 0.00 0.00 0.00 40 991.2
20260502213133 48 282 9.0 0.0 0.00 0.00 0.00 41 990.8
20260502211615 48 278 9.0 0.0 0.00 0.00 0.00 41 990.8
20260502210144 48 275 9.0 0.0 0.00 0.00 0.00 41 990.8
20260502204614 48 275 10.0 0.0 0.00 0.00 0.00 37 991.3
20260502203133 48 275 9.0 0.0 0.00 0.00 0.00 37 991.8
20260502201615 47 279 9.0 0.0 0.00 0.00 0.00 37 991.7
20260502200141 47 281 9.0 0.0 0.00 0.00 0.00 37 991.7
20260502194615 47 283 10.0 0.0 0.00 0.00 0.00 38 991.9
20260502193128 47 285 10.0 0.0 0.00 0.00 0.00 38 991.9
20260502191615 48 288 11.0 0.0 0.00 0.00 0.00 38 991.9
20260502190143 47 284 11.0 0.0 0.00 0.00 0.00 38 991.9
20260502183134 46 286 11.0 0.0 0.00 0.00 0.00 45 991.8
20260502181613 47 288 11.0 0.0 0.00 0.00 0.00 45 991.8